This demonstration page uses our WeatherBlox Daily Observations layout. Learn more.

Hourly Observations for May 2, 2018

Temp ( °F °C ) Dew Point ( °F °C ) Humidity (%) Winds ( mph kmh ) Pressure ( in mb ) Visibility ( mi km ) Precip ( " mm )
12:54 am 00:54 Partly Cloudy 68 20 61 16.1 78 78 NW 5 7 29.75 1008 10 16.0934 0 0
1:51 am 01:51 Cloudy 66 19 61 16 83 83 SW 3 6 29.74 1007 10 16.0934 0 0.0254
1:54 am 01:54 Cloudy 67 19.4 61 16.1 81 81 NW 8 13 29.76 1008 10 16.0934 0 0.0254
2:15 am 02:15 Cloudy 63 17.2 57 13.9 81 81 N 7 11 29.77 1008 9 14.48406 0 0
2:54 am 02:54 Mostly Cloudy 61 16.1 57 13.9 87 87 N 10 17 29.78 1008 8 12.87472 0 0
3:54 am 03:54 Cloudy 60 15.6 56 13.3 86 86 N 12 19 29.79 1009 7 11.26538 0 0
4:36 am 04:36 Cloudy with Mist and Fog 60 15.6 56 13.3 86 86 N 10 17 29.8 1009 6 9.65604 0 0
4:41 am 04:41 Cloudy with Mist and Fog 60 15.6 56 13.3 86 86 N 13 20 29.8 1009 6 9.65604 0 0
4:54 am 04:54 Cloudy with Mist and Fog 60 15.6 56 13.3 86 86 N 10 17 29.81 1010 6 9.65604 0 0
5:54 am 05:54 Cloudy with Mist and Fog 58 14.4 55 12.8 90 90 NNE 10 17 29.84 1010 5 8.0467 0 0
6:47 am 06:47 Cloudy with Mist and Fog 57 13.9 54 12.2 90 90 N 9 15 29.88 1012 4 6.43736 0 0
6:54 am 06:54 Cloudy with Mist and Fog 57 13.9 54 12.2 90 90 NNE 10 17 29.86 1011 4 6.43736 0 0
7:34 am 07:34 Cloudy with Light Rain 57 13.9 54 12.2 90 90 NNE 10 17 29.88 1012 4 6.43736 0 0.0254
7:54 am 07:54 Cloudy with Mist and Fog 56 13.3 54 12.2 93 93 NNE 10 17 29.88 1012 3 4.82802 0 0.0254
8:27 am 08:27 Cloudy with Mist and Fog 56 13.3 54 12.2 93 93 NNE 9 15 29.91 1013 2.5 4.02335 0 0
8:36 am 08:36 Cloudy with Mist and Fog 56 13.3 54 12.2 93 93 NNE 10 17 29.91 1013 3 4.82802 0 0
8:54 am 08:54 Cloudy with Mist and Fog 57 13.9 54 12.2 90 90 NNE 10 17 29.88 1012 2.5 4.02335 0 0
9:35 am 09:35 Cloudy with Light Rain 58 14.4 55 12.8 90 90 NNE 12 19 29.91 1013 3 4.82802 0 0.0254
9:54 am 09:54 Cloudy with Mist and Fog 57 13.9 55 12.8 93 93 NNE 14 22 29.89 1012 3 4.82802 0 0.0254
10:54 am 10:54 Cloudy with Mist and Fog 56 13.3 53 11.7 90 90 NNE 12 19 29.9 1012 3 4.82802 0 0.0254
11:22 am 11:22 Cloudy with Mist and Fog 56 13.3 53 11.7 90 90 NNE 10 17 29.91 1013 2.5 4.02335 0 0
11:34 am 11:34 Cloudy with Mist and Fog 56 13.3 53 11.7 90 90 NNE 14 22 29.91 1013 3 4.82802 0 0
11:54 am 11:54 Cloudy with Mist and Fog 56 13.3 53 11.7 90 90 NNE 14 22 29.91 1013 3 4.82802 0 0
12:54 pm 12:54 Cloudy with Mist and Fog 57 13.9 53 11.7 87 87 NNE 14 22 29.9 1012 3 4.82802 0 0.0254
1:54 pm 13:54 Cloudy with Light Rain 58 14.4 54 12.2 87 87 NE 14 22 29.88 1012 4 6.43736 0 0.0254
2:54 pm 14:54 Cloudy with Haze 59 15 54 12.2 83 83 NE 14 22 29.88 1012 5 8.0467 0 0.0254
3:54 pm 15:54 Cloudy with Light Rain 59 15 55 12.8 87 87 NE 14 22 29.85 1011 5 8.0467 0 0.0254
4:54 pm 16:54 Cloudy with Light Rain 58 14.4 55 12.8 90 90 NNE 14 22 29.87 1012 5 8.0467 0 0.0254
5:51 pm 17:51 Cloudy with Light Thunderstorms 58 14.4 55 12.8 90 90 N 10 17 29.88 1012 5 8.0467 0 0.0254
6:11 pm 18:11 Cloudy with Nearby Thunderstorms 57 13.9 55 12.8 93 93 N 14 22 29.88 1012 5 8.0467 0.02 0.508
6:20 pm 18:20 Cloudy with Nearby Thunderstorms 57 13.9 55 12.8 93 93 N 10 17 29.91 1013 4 6.43736 0.04 1.016
6:35 pm 18:35 Cloudy with Rain 57 13.9 55 12.8 93 93 NE 6 9 29.91 1013 4 6.43736 0.08 2.032
6:50 pm 18:50 Cloudy with Nearby Thunderstorms 57 14 55 13 94 94 ESE 14 22 29.91 1013 3 4.82802 0.13 3.302
6:54 pm 18:54 Cloudy with Nearby Thunderstorms 57 13.9 55 12.8 93 93 ESE 22 35 29.87 1012 3 4.82802 0.16 4.064
7:21 pm 19:21 Cloudy with Light Rain 58 14.4 56 13.3 93 93 ESE 21 33 29.8 1009 4 6.43736 0.06 1.524
7:54 pm 19:54 Mostly Cloudy with Light Rain 58 14.4 56 13.3 93 93 NNW 13 20 29.8 1009 5 8.0467 0.06 1.524
8:54 pm 20:54 Mostly Clear with Light Rain 57 13.9 55 12.8 93 93 N 10 17 29.83 1010 7 11.26538 0 0.0254
9:54 pm 21:54 Clear with Light Rain 55 12.8 54 12.2 96 96 NNE 9 15 29.84 1011 5 8.0467 0 0.0254
10:54 pm 22:54 Clear with Light Rain 54 12.2 52 11.1 93 93 NNE 7 11 29.85 1011 5 8.0467 0 0.0254
11:54 pm 23:54 Clear with Light Rain 54 12.2 52 11.1 93 93 Calm 29.88 1012 4 6.43736 0 0.0254

Powered by AerisWeather